GFSNIL_con_3kmhel_072.txt.gz
Helicity
120 147 106 87 260 277 333 297 272 205 193 229 335 413 438 413 552 454 399 347 359 251
182 141 144 151 240 260 274 276 230 177 225 334 503 568 526 596 496 433 316 351 222 233
197 170 156 255 248 285 334 328 320 373 396 460 511 535 526 543 534 413 271 250 174 192
238 246 314 345 245 329 353 366 375 434 439 455 569 598 652 442 285 242 146 183 153 119
330 343 331 387 411 411 429 372 376 390 409 405 358 303 337 350 257 196 165 116 110 109
584 549 526 416 380 366 385 392 399 373 334 360 399 280 268 229 201 156 126 133 141 102
502 423 389 346 351 347 364 415 399 361 364 316 253 209 192 163 143 120 112 129 120 127
432 418 348 329 327 387 371 375 352 350 343 272 192 153 142 134 157 158 133 116 117 112
354 355 334 360 371 378 374 361 348 309 216 185 139 132 132 149 160 158 142 128 118 115
336 300 298 321 352 351 331 300 244 203 164 160 169 140 175 195 156 142 134 125 122 119
285 296 294 314 306 274 231 196 171 165 174 167 326 316 242 175 135 147 158 151 163 182
263 292 279 273 231 180 163 164 172 181 236 300 316 289 228 189 191 204 181 161 184 196
254 252 235 208 181 168 157 194 285 293 282 257 255 246 221 178 170 182 179 167 143 126
186 183 177 187 228 236 286 322 258 263 260 242 244 248 228 203 159 160 148 142 137 131

GFSNIL_con_3kmhel_078.txt.gz
Helicity
15 11 62 99 155 173 179 175 192 178 178 254 271 242 288 362 398 426 458 533 404 455
73 79 116 165 247 273 279 220 211 226 233 320 300 312 327 360 399 419 367 345 355 362
157 175 180 256 288 223 258 292 273 296 267 272 349 320 339 362 360 343 338 336 330 291
245 273 328 369 329 315 321 349 291 159 304 357 306 350 346 332 327 321 349 289 283 240
279 322 370 417 355 506 527 116 138 270 346 359 356 329 333 341 305 296 292 275 279 221
358 363 350 326 426 344 349 297 329 432 375 306 287 300 296 306 308 281 275 260 251 220
304 338 430 464 504 475 477 521 503 374 311 291 312 323 340 324 329 312 264 268 206 220
311 349 410 457 449 438 430 407 378 360 360 354 352 335 332 340 343 311 252 265 263 257
416 450 458 422 384 403 410 399 381 385 387 398 390 381 361 373 338 255 317 313 294 289
396 429 416 395 366 360 354 354 371 379 400 406 388 361 359 335 325 317 307 286 276 273
353 384 359 338 333 335 322 346 370 375 423 420 355 313 347 354 348 342 315 282 249 226
327 343 310 292 286 280 302 325 368 370 363 354 348 352 362 348 319 306 296 237 216 213
245 250 234 240 249 275 322 353 347 356 348 346 353 327 318 293 265 276 237 217 213 230
211 217 234 271 296 352 372 368 380 400 393 390 357 325 293 260 248 210 213 210 207 200

GFSNIL_con_3kmhel_081.txt.gz
Helicity
-25 -39 -48 -40 -18 -10 22 50 105 115 119 137 201 206 253 238 228 285 308 339 368 357
28 5 -26 -47 -30 23 70 110 139 174 169 194 264 265 227 244 220 285 305 313 354 328
67 47 33 26 50 96 136 170 188 148 191 252 252 214 194 225 215 281 317 320 309 259
107 114 111 105 127 220 297 371 349 220 288 156 145 242 277 293 301 320 352 330 296 300
109 95 97 121 252 290 302 364 347 216 267 152 74 177 291 310 343 346 317 315 311 319
178 148 206 255 288 335 355 465 334 345 273 291 254 265 298 292 319 315 311 333 308 308
373 352 291 332 386 417 433 327 327 370 295 289 330 323 295 318 333 344 329 313 278 306
378 376 390 376 400 428 435 408 388 345 349 368 326 341 347 319 342 381 422 288 386 422
436 404 355 330 351 367 370 365 352 358 336 344 367 357 369 424 374 395 369 444 436 397
335 319 283 295 308 301 302 317 330 359 399 434 401 388 401 419 433 430 455 382 338 360
252 257 259 277 280 318 327 336 353 391 420 427 413 412 456 506 483 433 323 346 341 303
239 275 292 308 316 327 354 346 349 354 386 405 391 380 376 365 364 386 373 335 296 275
230 244 277 275 283 284 307 349 379 415 391 382 392 370 376 373 350 380 351 326 307 299
235 240 249 275 300 334 361 397 410 433 435 430 414 418 388 357 355 343 335 303 266 226

GFSNIL_con_3kmhel_084.txt.gz
Helicity
-62 -92 -107 -134 -150 -200 -171 -191 -115 -48 -2 58 94 115 154 155 201 222 203 197 262 251
-5 -12 -59 -102 -164 -199 -190 -141 -100 -57 -45 8 81 152 186 177 144 156 188 190 179 230
49 48 41 15 -14 -41 -88 -93 -88 -69 1 39 88 179 181 190 179 169 170 206 132 229
108 92 76 47 8 23 34 74 109 138 169 174 131 179 256 157 192 201 288 209 209 256
200 243 208 201 206 160 130 143 166 233 254 247 118 231 336 319 150 167 231 256 305 310
117 197 229 227 187 235 260 223 260 287 346 237 125 300 271 243 215 217 243 226 319 335
204 254 229 248 238 276 299 283 321 321 338 349 383 278 240 256 257 259 249 278 307 337
189 200 242 259 255 250 250 247 247 293 378 372 308 292 274 286 302 306 336 351 417 446
235 255 271 275 258 261 267 268 284 313 323 300 279 261 287 330 358 401 425 548 501 440
235 236 230 222 208 185 194 239 254 272 290 298 281 262 331 424 448 463 504 389 392 445
183 192 201 198 191 214 215 247 273 292 315 335 347 391 432 507 489 475 418 432 473 461
160 175 190 230 239 251 304 358 371 335 324 364 369 346 324 358 430 465 468 399 353 247
202 219 230 256 294 324 340 335 348 401 395 395 394 381 396 394 405 419 413 339 285 345
231 249 266 296 295 300 332 382 416 462 478 476 440 441 423 394 376 373 374 365 360 367

GFSNIL_con_3kmhel_090.txt.gz
Helicity
1 -11 -3 39 37 69 42 27 -6 -58 -67 -49 -35 -17 25 37 2 1 21 10 31 81
-4 -5 -14 -6 -10 9 50 42 49 19 45 43 22 19 31 23 -33 -12 9 27 51 92
32 29 2 1 25 32 35 46 41 12 18 27 22 41 53 67 51 70 70 85 65 105
25 40 34 24 22 30 40 47 32 11 1 22 38 71 92 111 167 122 80 43 -27 -36
35 31 23 12 14 16 21 29 41 42 38 45 61 85 151 248 269 241 358 187 84 -7
39 47 49 38 27 24 28 31 35 48 63 66 90 112 161 186 243 261 256 179 110 149
66 67 63 51 36 47 44 66 79 58 66 84 74 108 101 126 142 157 211 184 171 214
72 64 64 53 57 55 66 49 57 75 81 78 67 84 102 125 151 204 237 314 345 338
31 32 34 26 31 52 52 56 91 98 91 105 145 213 162 158 205 272 353 393 379 417
48 42 48 45 46 51 67 81 136 227 251 260 229 195 210 287 328 388 411 393 379 385
100 109 124 131 150 206 230 243 259 276 277 275 272 294 334 394 384 416 415 415 395 377
187 241 279 288 278 275 314 326 334 337 340 335 361 362 347 341 376 426 425 385 410 423
323 348 363 330 307 299 324 348 384 435 448 459 449 439 371 311 248 352 279 289 324 365
428 414 379 346 291 303 324 379 422 455 459 458 399 387 339 273 189 196 233 232 206 212

GFSNIL_con_3kmhel_096.txt.gz
Helicity
169 187 168 178 209 191 213 186 142 96 88 -55 -52 -42 -32 166 160 122 131 15 -11 47
154 137 172 218 235 203 213 193 155 136 75 49 -44 -39 28 128 106 103 24 43 19 97
128 127 124 121 205 226 210 189 139 111 60 -37 -47 -28 40 58 60 93 73 78 119 168
77 96 84 84 68 88 138 147 137 88 50 29 16 46 67 59 70 68 116 141 175 178
72 64 64 48 29 29 87 103 117 94 108 121 72 62 94 106 128 112 133 153 159 178
93 117 63 35 50 72 67 79 69 77 56 83 93 99 100 84 85 110 124 147 172 170
153 136 117 91 73 36 69 87 106 100 85 87 88 79 76 86 105 108 141 182 309 352
160 140 132 111 97 109 125 93 90 86 67 72 80 89 121 114 122 196 345 412 446 512
203 178 168 160 146 132 125 125 133 114 109 226 322 304 291 298 337 395 413 431 447 407
218 212 186 167 167 159 165 198 314 489 450 460 446 402 407 413 432 444 433 375 387 411
176 195 186 183 170 350 488 534 542 506 473 511 503 442 450 479 455 455 454 441 398 417
194 199 181 369 567 548 607 623 618 584 564 529 490 400 380 396 444 480 472 442 378 305
467 614 655 656 639 654 682 689 672 677 615 570 517 462 445 389 345 379 346 361 357 382
751 937 797 759 762 769 747 728 724 706 677 660 582 550 463 362 295 238 239 281 300 236